This is the latest recevied weather packets stored in our database for station/object Winterlng. If no packets are shown the sender has not sent any weather packets the latest 10 day(s).
| Time | Temp. | Humidity | Pressure | Rain* | Wind** | Luminosity | Snow |
|---|---|---|---|---|---|---|---|
| 1777930329 | 12.78° C | 75% | 0 hPa | 0.76 mm | - | - | - |
| 1777928529 | 12.78° C | 73% | 0 hPa | 0.76 mm | - | - | - |
| 1777926729 | 13.33° C | 72% | 0 hPa | 0.76 mm | - | - | - |
| 1777924929 | 13.33° C | 71% | 0 hPa | 0.76 mm | - | - | - |
| 1777923129 | 13.89° C | 68% | 0 hPa | 0.76 mm | - | - | - |
| 1777921329 | 14.44° C | 65% | 0 hPa | 0.76 mm | - | - | - |
| 1777919529 | 15° C | 60% | 0 hPa | 0.76 mm | - | - | - |
| 1777917734 | 16.11° C | 56% | 0 hPa | 0.76 mm | - | - | - |
| 1777915929 | 16.67° C | 56% | 0 hPa | 0.76 mm | - | - | - |
| 1777914130 | 17.22° C | 52% | 0 hPa | 0.76 mm | - | - | - |
| 1777912332 | 17.78° C | 50% | 0 hPa | 0.76 mm | - | - | - |
| 1777910530 | 17.78° C | 49% | 0 hPa | 0.76 mm | - | - | - |
| 1777908732 | 18.33° C | 47% | 0 hPa | 0.76 mm | - | - | - |
| 1777906930 | 17.78° C | 50% | 0 hPa | 0.76 mm | - | - | - |
| 1777905129 | 19.44° C | 40% | 0 hPa | 0.76 mm | - | - | - |
| 1777903330 | 19.44° C | 40% | 0 hPa | 0.76 mm | - | - | - |
| 1777901532 | 20° C | 40% | 0 hPa | 0.76 mm | - | - | - |
| 1777899735 | 20° C | 41% | 0 hPa | 0.76 mm | - | - | - |
| 1777897935 | 19.44° C | 43% | 0 hPa | 0.76 mm | - | - | - |
| 1777896130 | 19.44° C | 45% | 0 hPa | 0.76 mm | - | - | - |
| 1777894331 | 18.33° C | 43% | 0 hPa | 0.76 mm | - | - | - |
| 1777892530 | 18.89° C | 38% | 0 hPa | 0.76 mm | - | - | - |
| 1777890735 | 19.44° C | 38% | 0 hPa | 0.76 mm | - | - | - |
| 1777888932 | 18.89° C | 40% | 0 hPa | 0.76 mm | - | - | - |
| 1777887130 | 18.33° C | 41% | 0 hPa | 0.76 mm | - | - | - |
* Rain since midnight (hover to see other rain measurements)
** Current wind speed in m/s (hover to see current wind gust speed)